Time,TemperatureF,DewpointF,PressureIn,WindDirection,WindDirectionDegrees,WindSpeedMPH,WindSpeedGustMPH,Humidity,HourlyPrecipIn,Conditions,Clouds,dailyrainin,SoftwareType,DateUTC
2013-01-10 00:03:00,37.0,32.0,30.50,WSW,252,0.0,0.0,82,0.00,,,0.08,,2013-01-10 05:03:00,
2013-01-10 00:12:00,37.0,32.0,30.50,WSW,252,0.0,0.0,82,0.00,,,0.08,,2013-01-10 05:12:00,
2013-01-10 00:22:00,37.0,32.0,30.51,WSW,244,1.0,3.0,81,0.00,,,0.08,,2013-01-10 05:22:00,
2013-01-10 00:33:00,36.0,30.0,30.51,SW,235,1.0,4.0,80,0.00,,,0.08,,2013-01-10 05:33:00,
2013-01-10 00:43:00,36.0,30.0,30.51,SW,235,1.0,4.0,80,0.00,,,0.08,,2013-01-10 05:43:00,
2013-01-10 00:53:00,36.0,31.0,30.52,SW,215,1.0,4.0,81,0.00,,,0.08,,2013-01-10 05:53:00,
2013-01-10 01:02:00,36.0,31.0,30.52,SSW,212,0.0,0.0,82,0.00,,,0.08,,2013-01-10 06:02:00,
2013-01-10 01:12:00,36.0,31.0,30.52,SSW,212,0.0,0.0,82,0.00,,,0.08,,2013-01-10 06:12:00,
2013-01-10 01:22:00,34.0,30.0,30.53,WSW,238,0.0,1.0,84,0.00,,,0.08,,2013-01-10 06:22:00,
2013-01-10 01:32:00,34.0,30.0,30.53,WSW,238,0.0,0.0,84,0.00,,,0.08,,2013-01-10 06:32:00,
2013-01-10 01:42:00,34.0,30.0,30.53,WSW,238,0.0,0.0,84,0.00,,,0.08,,2013-01-10 06:42:00,
2013-01-10 01:52:00,33.0,29.0,30.53,WSW,238,0.0,1.0,86,0.00,,,0.08,,2013-01-10 06:52:00,
2013-01-10 02:02:00,33.0,29.0,30.53,WSW,238,0.0,1.0,85,0.00,,,0.08,,2013-01-10 07:02:00,
2013-01-10 02:12:00,33.0,29.0,30.53,WSW,238,0.0,1.0,85,0.00,,,0.08,,2013-01-10 07:12:00,
2013-01-10 02:22:00,33.0,29.0,30.53,WSW,238,0.0,1.0,85,0.00,,,0.08,,2013-01-10 07:22:00,
2013-01-10 02:32:00,32.0,28.0,30.53,WSW,238,0.0,1.0,86,0.00,,,0.08,,2013-01-10 07:32:00,
2013-01-10 02:42:00,32.0,28.0,30.53,WSW,238,0.0,1.0,86,0.00,,,0.08,,2013-01-10 07:42:00,
2013-01-10 02:52:00,32.0,29.0,30.53,WSW,238,0.0,1.0,87,0.00,,,0.08,,2013-01-10 07:52:00,
2013-01-10 03:02:00,31.0,28.0,30.53,WSW,238,0.0,2.0,87,0.00,,,0.08,,2013-01-10 08:02:00,
2013-01-10 03:12:00,31.0,28.0,30.53,WSW,238,0.0,2.0,87,0.00,,,0.08,,2013-01-10 08:12:00,
2013-01-10 03:22:00,31.0,27.0,30.54,WSW,238,0.0,1.0,86,0.00,,,0.08,,2013-01-10 08:22:00,
2013-01-10 03:32:00,31.0,27.0,30.53,WSW,238,0.0,1.0,86,0.00,,,0.08,,2013-01-10 08:32:00,
2013-01-10 03:42:00,31.0,27.0,30.53,WSW,238,0.0,1.0,86,0.00,,,0.08,,2013-01-10 08:42:00,
2013-01-10 03:53:00,31.0,28.0,30.53,WSW,238,0.0,1.0,87,0.00,,,0.08,,2013-01-10 08:53:00,
2013-01-10 04:02:00,29.0,26.0,30.53,WSW,238,0.0,0.0,89,0.00,,,0.08,,2013-01-10 09:02:00,
2013-01-10 04:12:00,29.0,26.0,30.53,WSW,238,0.0,0.0,89,0.00,,,0.08,,2013-01-10 09:12:00,
2013-01-10 04:22:00,28.0,25.0,30.53,WSW,238,0.0,0.0,90,0.00,,,0.08,,2013-01-10 09:22:00,
2013-01-10 04:32:00,28.0,26.0,30.52,WSW,238,0.0,0.0,91,0.00,,,0.08,,2013-01-10 09:32:00,
2013-01-10 04:42:00,28.0,26.0,30.52,WSW,238,0.0,0.0,91,0.00,,,0.08,,2013-01-10 09:42:00,
2013-01-10 04:52:00,28.0,26.0,30.52,WSW,238,0.0,0.0,93,0.00,,,0.08,,2013-01-10 09:52:00,
2013-01-10 05:03:00,28.0,26.0,30.52,WSW,238,0.0,0.0,93,0.00,,,0.08,,2013-01-10 10:03:00,
2013-01-10 05:12:00,28.0,26.0,30.52,WSW,238,0.0,0.0,93,0.00,,,0.08,,2013-01-10 10:12:00,
2013-01-10 05:22:00,28.0,26.0,30.52,WSW,238,0.0,1.0,93,0.00,,,0.08,,2013-01-10 10:22:00,
2013-01-10 05:32:00,28.0,26.0,30.53,WSW,238,0.0,2.0,93,0.00,,,0.08,,2013-01-10 10:32:00,
2013-01-10 05:42:00,28.0,26.0,30.53,WSW,238,0.0,2.0,93,0.00,,,0.08,,2013-01-10 10:42:00,
2013-01-10 05:53:00,28.0,26.0,30.54,WSW,238,0.0,1.0,93,0.00,,,0.08,,2013-01-10 10:53:00,
2013-01-10 06:02:00,27.0,25.0,30.54,WSW,238,0.0,2.0,93,0.00,,,0.08,,2013-01-10 11:02:00,
2013-01-10 06:12:00,27.0,25.0,30.54,WSW,238,0.0,2.0,93,0.00,,,0.08,,2013-01-10 11:12:00,
2013-01-10 06:22:00,27.0,25.0,30.55,WSW,238,0.0,0.0,93,0.00,,,0.08,,2013-01-10 11:22:00,
2013-01-10 06:33:00,27.0,25.0,30.55,WSW,238,0.0,0.0,93,0.00,,,0.08,,2013-01-10 11:33:00,
2013-01-10 06:43:00,27.0,25.0,30.55,WSW,238,0.0,0.0,93,0.00,,,0.08,,2013-01-10 11:43:00,
2013-01-10 06:53:00,27.0,25.0,30.56,WSW,238,0.0,1.0,93,0.00,,,0.08,,2013-01-10 11:53:00,
2013-01-10 07:03:00,27.0,25.0,30.57,WSW,238,0.0,1.0,93,0.00,,,0.08,,2013-01-10 12:03:00,
2013-01-10 07:12:00,27.0,25.0,30.57,WSW,238,0.0,1.0,93,0.00,,,0.08,,2013-01-10 12:12:00,
2013-01-10 07:22:00,27.0,25.0,30.57,WSW,238,0.0,0.0,93,0.00,,,0.08,,2013-01-10 12:22:00,
2013-01-10 07:33:00,26.0,24.0,30.58,WSW,238,0.0,1.0,93,0.00,,,0.08,,2013-01-10 12:33:00,
2013-01-10 07:43:00,26.0,24.0,30.58,WSW,238,0.0,1.0,93,0.00,,,0.08,,2013-01-10 12:43:00,
2013-01-10 07:53:00,26.0,24.0,30.58,WSW,238,0.0,0.0,93,0.00,,,0.08,,2013-01-10 12:53:00,
2013-01-10 08:02:00,26.0,24.0,30.59,WSW,238,0.0,0.0,93,0.00,,,0.08,,2013-01-10 13:02:00,
2013-01-10 08:12:00,26.0,24.0,30.59,WSW,238,0.0,0.0,93,0.00,,,0.08,,2013-01-10 13:12:00,
2013-01-10 08:22:00,26.0,24.0,30.60,WSW,238,0.0,1.0,93,0.00,,,0.08,,2013-01-10 13:22:00,
2013-01-10 08:32:00,26.0,24.0,30.60,WSW,238,0.0,0.0,93,0.00,,,0.08,,2013-01-10 13:32:00,
2013-01-10 08:42:00,26.0,24.0,30.60,WSW,238,0.0,0.0,93,0.00,,,0.08,,2013-01-10 13:42:00,
2013-01-10 08:53:00,26.0,24.0,30.61,WSW,238,0.0,0.0,93,0.00,,,0.08,,2013-01-10 13:53:00,
2013-01-10 09:02:00,26.0,24.0,30.61,WSW,238,0.0,0.0,93,0.00,,,0.08,,2013-01-10 14:02:00,
2013-01-10 09:12:00,26.0,24.0,30.61,WSW,238,0.0,0.0,93,0.00,,,0.08,,2013-01-10 14:12:00,
2013-01-10 09:33:00,27.0,25.0,30.62,WSW,238,0.0,0.0,93,0.00,,,0.08,,2013-01-10 14:33:00,
2013-01-10 09:43:00,27.0,25.0,30.62,WSW,238,0.0,0.0,93,0.00,,,0.08,,2013-01-10 14:43:00,
2013-01-10 09:53:00,29.0,27.0,30.63,WSW,238,0.0,0.0,94,0.00,,,0.08,,2013-01-10 14:53:00,
2013-01-10 10:03:00,30.0,28.0,30.63,WSW,238,0.0,0.0,93,0.00,,,0.08,,2013-01-10 15:03:00,
2013-01-10 10:12:00,30.0,28.0,30.63,WSW,238,0.0,0.0,93,0.00,,,0.08,,2013-01-10 15:12:00,
2013-01-10 10:23:00,31.0,29.0,30.63,WSW,238,0.0,0.0,92,0.00,,,0.07,,2013-01-10 15:23:00,
2013-01-10 10:33:00,32.0,30.0,30.63,WSW,238,0.0,0.0,91,0.00,,,0.07,,2013-01-10 15:33:00,
2013-01-10 10:43:00,32.0,30.0,30.63,WSW,238,0.0,0.0,91,0.00,,,0.07,,2013-01-10 15:43:00,
2013-01-10 10:53:00,33.0,31.0,30.63,WSW,238,0.0,1.0,92,0.00,,,0.07,,2013-01-10 15:53:00,
2013-01-10 11:03:00,35.0,32.0,30.62,WSW,238,0.0,0.0,90,0.00,,,0.07,,2013-01-10 16:03:00,
2013-01-10 11:13:00,35.0,32.0,30.62,WSW,238,0.0,0.0,90,0.00,,,0.07,,2013-01-10 16:13:00,
2013-01-10 11:23:00,36.0,33.0,30.61,SW,236,0.0,1.0,90,0.00,,,0.06,,2013-01-10 16:23:00,
2013-01-10 11:33:00,36.0,32.0,30.60,SW,236,0.0,1.0,86,0.00,,,0.06,,2013-01-10 16:33:00,
2013-01-10 11:43:00,36.0,32.0,30.60,SW,236,0.0,1.0,86,0.00,,,0.06,,2013-01-10 16:43:00,
2013-01-10 11:53:00,38.0,32.0,30.59,East,96,1.0,4.0,80,0.00,,,0.06,,2013-01-10 16:53:00,
2013-01-10 12:03:00,38.0,33.0,30.59,ENE,71,0.0,4.0,81,0.00,,,0.06,,2013-01-10 17:03:00,
2013-01-10 12:12:00,38.0,33.0,30.59,ENE,71,0.0,4.0,81,0.00,,,0.06,,2013-01-10 17:12:00,
2013-01-10 12:22:00,38.0,32.0,30.58,ENE,57,1.0,3.0,79,0.00,,,0.02,,2013-01-10 17:22:00,
2013-01-10 12:33:00,39.0,32.0,30.57,ENE,65,1.0,3.0,77,0.00,,,0.02,,2013-01-10 17:33:00,
2013-01-10 12:42:00,39.0,32.0,30.57,ENE,65,1.0,3.0,77,0.00,,,0.02,,2013-01-10 17:42:00,
2013-01-10 12:53:00,39.0,31.0,30.56,ENE,61,1.0,3.0,74,0.00,,,0.02,,2013-01-10 17:53:00,
2013-01-10 13:03:00,39.0,30.0,30.55,SE,133,1.0,4.0,71,0.00,,,0.02,,2013-01-10 18:03:00,
2013-01-10 13:12:00,40.0,31.0,30.55,East,88,1.0,4.0,71,0.00,,,0.01,,2013-01-10 18:12:00,
2013-01-10 13:23:00,40.0,31.0,30.55,East,88,1.0,4.0,71,0.00,,,0.01,,2013-01-10 18:23:00,
2013-01-10 13:33:00,40.0,32.0,30.55,ENE,58,0.0,2.0,73,0.00,,,0.01,,2013-01-10 18:33:00,
2013-01-10 13:43:00,40.0,31.0,30.55,East,93,0.0,3.0,70,0.00,,,0.01,,2013-01-10 18:43:00,
2013-01-10 13:53:00,40.0,31.0,30.55,East,93,0.0,3.0,70,0.00,,,0.01,,2013-01-10 18:53:00,
2013-01-10 14:03:00,41.0,32.0,30.54,ESE,121,1.0,2.0,70,0.00,,,0.01,,2013-01-10 19:03:00,
2013-01-10 14:13:00,42.0,33.0,30.54,NE,51,1.0,3.0,70,0.00,,,0.00,,2013-01-10 19:13:00,
2013-01-10 14:23:00,42.0,33.0,30.54,NE,51,1.0,3.0,70,0.00,,,0.00,,2013-01-10 19:23:00,
2013-01-10 14:33:00,43.0,33.0,30.53,ENE,61,1.0,3.0,67,0.00,,,0.00,,2013-01-10 19:33:00,
2013-01-10 14:43:00,43.0,33.0,30.53,ENE,61,1.0,3.0,67,0.00,,,0.00,,2013-01-10 19:43:00,
2013-01-10 14:53:00,43.0,33.0,30.52,ENE,60,1.0,3.0,68,0.00,,,0.00,,2013-01-10 19:53:00,
2013-01-10 15:03:00,42.0,32.0,30.52,East,95,0.0,1.0,68,0.00,,,0.00,,2013-01-10 20:03:00,
2013-01-10 15:24:00,43.0,32.0,30.51,ENE,74,1.0,2.0,66,0.00,,,0.00,,2013-01-10 20:24:00,
2013-01-10 15:33:00,42.0,31.0,30.50,ENE,74,2.0,3.0,66,0.00,,,0.00,,2013-01-10 20:33:00,
2013-01-10 15:43:00,42.0,31.0,30.50,ENE,74,2.0,3.0,66,0.00,,,0.00,,2013-01-10 20:43:00,
2013-01-10 15:53:00,42.0,33.0,30.50,ENE,68,1.0,3.0,69,0.00,,,0.00,,2013-01-10 20:53:00,
2013-01-10 16:04:00,41.0,31.0,30.49,ENE,68,1.0,2.0,68,0.00,,,0.00,,2013-01-10 21:04:00,
2013-01-10 16:13:00,41.0,32.0,30.48,NE,49,0.0,2.0,69,0.00,,,0.00,,2013-01-10 21:13:00,
2013-01-10 16:23:00,41.0,32.0,30.48,NE,49,0.0,2.0,69,0.00,,,0.00,,2013-01-10 21:23:00,
2013-01-10 16:33:00,41.0,32.0,30.48,NE,49,0.0,1.0,71,0.00,,,0.00,,2013-01-10 21:33:00,
2013-01-10 16:43:00,41.0,32.0,30.48,NE,49,0.0,1.0,71,0.00,,,0.00,,2013-01-10 21:43:00,
2013-01-10 16:53:00,40.0,31.0,30.48,NE,49,0.0,0.0,71,0.00,,,0.00,,2013-01-10 21:53:00,
2013-01-10 17:03:00,40.0,31.0,30.47,NE,49,0.0,2.0,71,0.00,,,0.00,,2013-01-10 22:03:00,
2013-01-10 17:13:00,40.0,31.0,30.47,ENE,69,0.0,1.0,70,0.00,,,0.00,,2013-01-10 22:13:00,
2013-01-10 17:26:00,40.0,31.0,30.47,ENE,69,0.0,1.0,70,0.00,,,0.00,,2013-01-10 22:26:00,
2013-01-10 17:33:00,39.0,31.0,30.47,ENE,69,0.0,2.0,72,0.00,,,0.00,,2013-01-10 22:33:00,
2013-01-10 17:43:00,39.0,31.0,30.47,ENE,69,0.0,2.0,72,0.00,,,0.00,,2013-01-10 22:43:00,
2013-01-10 18:03:00,39.0,31.0,30.46,ENE,75,0.0,2.0,72,0.00,,,0.00,,2013-01-10 23:03:00,
2013-01-10 18:13:00,39.0,31.0,30.45,ENE,59,0.0,3.0,73,0.00,,,0.00,,2013-01-10 23:13:00,
2013-01-10 18:23:00,39.0,31.0,30.45,ENE,59,0.0,3.0,73,0.00,,,0.00,,2013-01-10 23:23:00,
2013-01-10 18:33:00,39.0,31.0,30.45,ENE,59,1.0,2.0,72,0.00,,,0.00,,2013-01-10 23:33:00,
2013-01-10 18:43:00,39.0,31.0,30.45,ENE,59,1.0,2.0,72,0.00,,,0.00,,2013-01-10 23:43:00,
2013-01-10 18:53:00,39.0,31.0,30.45,ENE,59,0.0,2.0,72,0.00,,,0.00,,2013-01-10 23:53:00,
2013-01-10 19:03:00,38.0,30.0,30.46,ENE,59,0.0,2.0,73,0.00,,,0.00,,2013-01-11 00:03:00,
2013-01-10 19:13:00,38.0,30.0,30.45,ENE,63,1.0,3.0,72,0.00,,,0.00,,2013-01-11 00:13:00,
2013-01-10 19:23:00,38.0,30.0,30.45,ENE,63,1.0,3.0,72,0.00,,,0.00,,2013-01-11 00:23:00,
2013-01-10 19:33:00,38.0,30.0,30.44,ENE,63,0.0,0.0,74,0.00,,,0.00,,2013-01-11 00:33:00,
2013-01-10 19:42:00,38.0,30.0,30.44,ENE,63,0.0,0.0,74,0.00,,,0.00,,2013-01-11 00:42:00,
2013-01-10 19:53:00,38.0,30.0,30.43,ENE,63,1.0,2.0,73,0.00,,,0.00,,2013-01-11 00:53:00,
2013-01-10 20:03:00,38.0,30.0,30.42,ENE,63,0.0,1.0,72,0.00,,,0.00,,2013-01-11 01:03:00,
2013-01-10 20:13:00,38.0,30.0,30.41,ENE,63,0.0,1.0,72,0.00,,,0.00,,2013-01-11 01:13:00,
2013-01-10 20:23:00,38.0,30.0,30.41,ENE,63,0.0,1.0,72,0.00,,,0.00,,2013-01-11 01:23:00,
2013-01-10 20:34:00,39.0,30.0,30.40,ENE,63,1.0,4.0,71,0.00,,,0.00,,2013-01-11 01:34:00,
2013-01-10 20:43:00,39.0,30.0,30.40,ENE,63,1.0,4.0,71,0.00,,,0.00,,2013-01-11 01:43:00,
2013-01-10 20:53:00,39.0,30.0,30.40,ENE,61,1.0,2.0,69,0.00,,,0.00,,2013-01-11 01:53:00,
2013-01-10 21:03:00,39.0,30.0,30.40,ENE,59,1.0,3.0,69,0.00,,,0.00,,2013-01-11 02:03:00,
2013-01-10 21:13:00,39.0,30.0,30.39,ENE,61,1.0,3.0,70,0.00,,,0.00,,2013-01-11 02:13:00,
2013-01-10 21:23:00,39.0,30.0,30.39,ENE,61,1.0,3.0,70,0.00,,,0.00,,2013-01-11 02:23:00,
2013-01-10 21:33:00,38.0,29.0,30.38,ENE,61,0.0,1.0,71,0.00,,,0.00,,2013-01-11 02:33:00,
2013-01-10 21:43:00,38.0,29.0,30.38,ENE,61,0.0,1.0,71,0.00,,,0.00,,2013-01-11 02:43:00,
2013-01-10 21:54:00,38.0,29.0,30.37,ENE,61,1.0,2.0,70,0.00,,,0.00,,2013-01-11 02:54:00,
2013-01-10 22:03:00,39.0,29.0,30.37,ENE,61,0.0,2.0,67,0.00,,,0.00,,2013-01-11 03:03:00,
2013-01-10 22:12:00,39.0,29.0,30.36,NE,54,0.0,2.0,66,0.00,,,0.00,,2013-01-11 03:12:00,
2013-01-10 22:23:00,39.0,29.0,30.36,NE,54,0.0,2.0,66,0.00,,,0.00,,2013-01-11 03:23:00,
2013-01-10 22:33:00,40.0,29.0,30.35,NE,55,1.0,2.0,65,0.00,,,0.00,,2013-01-11 03:33:00,
2013-01-10 22:43:00,40.0,29.0,30.35,NE,55,1.0,2.0,65,0.00,,,0.00,,2013-01-11 03:43:00,
2013-01-10 22:53:00,39.0,29.0,30.35,ENE,57,0.0,3.0,66,0.00,,,0.00,,2013-01-11 03:53:00,
2013-01-10 23:02:00,39.0,29.0,30.34,ENE,58,1.0,1.0,67,0.00,,,0.00,,2013-01-11 04:02:00,
2013-01-10 23:12:00,39.0,29.0,30.34,ENE,58,1.0,1.0,67,0.00,,,0.00,,2013-01-11 04:12:00,
2013-01-10 23:22:00,39.0,29.0,30.33,ENE,58,0.0,1.0,67,0.00,,,0.00,,2013-01-11 04:22:00,
2013-01-10 23:33:00,39.0,29.0,30.32,ENE,58,0.0,1.0,66,0.00,,,0.00,,2013-01-11 04:33:00,
2013-01-10 23:43:00,39.0,29.0,30.32,ENE,58,0.0,1.0,66,0.00,,,0.00,,2013-01-11 04:43:00,
2013-01-10 23:53:00,40.0,30.0,30.31,ENE,58,0.0,1.0,66,0.00,,,0.00,,2013-01-11 04:53:00,